Starlink 5320

operational
NORAD ID: 55289 Int'l Des: 2023-010 Owner: SPXS Country: US Constellation: starlink
LEOCIRCULAR

Über Starlink 5320

Beschreibung wird geladen...

Live-Position

3D-Globus wird geladen...

Nächste Überflüge

Höhenverlauf

Altitude vs Time

uPlot chart will show altitude changes over time

Zweizeiliger Elementsatz

1 55289U 23010W 25304.28620159 .00001087 00000-0 98909-4 0 9997
2 55289 69.9990 350.8172 0003215 272.1118 87.9673 14.98327982153880
Epoch: 31. Okt. 2025 • Age: 6 hours

Aktueller Status

Höhe 578.6 km
Geschwindigkeit 7.57 km/s
Subsatellitenpunkt -20.53°S, 50.65°W
Startdatum 19. Jan. 2023
Alter 2.7 years
Typ internet

Technische Details

Klassifizierung Payload
Masse 305.00 kg
Trockenmasse 290.00 kg
Gesamtmasse 305.00 kg
Länge 0.20 m
Durchmesser 2.80 m
Spannweite 9.00 m
Form Box + pan
Hersteller SPXS
Bus-Typ Starlink
Phasenstatus In Orbit
Besitzer/Staat SPXS/US

Große Konstellationen

Loading constellations...